www.pogodaiklimat.ru

Погода и климат >> Архив погоды >> Россия >> Камчатский край >> Петропавловск-Камчатский


АРХИВ ПОГОДЫ в Петропавловск-Камчатском

Время (UTC), дата Ветер
(напр.,м/с)
 
Видим.   Явления Облачность Т
(С)
Тd
(С)
f
(%)
Тe
(С)
Тes
(С)
Комфортность P
(гПа)
Po
(гПа)
Тmin
(С)
Tmax
(С)
R
(мм)
R24
(мм)
S
(см)
18 19.04 С 4 50 км ясно -0.3 -3.7 78 -6 -6 по сезону 1003.0 1000.0
21 19.04 С 5 50 км ясно +0.3 -5.8 64 -5 -3 по сезону 1004.2 1001.2 -1.1 121
00 20.04 С 3 50 км 9/9 1000 м
[Sc]
+2.4 -5.5 56 -1 -0 по сезону 1004.9 1001.9
03 20.04 ЮЗ 1 20 км 10/6 600 м
[Sc Ac trans Ci fib]
+5.0 -4.9 49 +4 +7 тепло 1005.0 1002.1
06 20.04 З 3 50 км 8/4 600 м
[Sc Ac trans Ci fib]
+3.5 -3.5 60 0 +1 по сезону 1005.4 1002.4
09 20.04 З 3 50 км 8/3 600 м
[Sc Ac trans Ci fib]
+1.8 -5.3 59 -2 -2 по сезону 1006.1 1003.1 +7.6
12 20.04 С 4 50 км 3/1 600 м
[Sc Ac trans]
+0.5 -8.1 52 -4 -4 по сезону 1007.0 1003.9
15 20.04 С 5 20 км 9/8 600 м
[Sc Ac trans]
-0.8 -7.7 59 -7 -7 по сезону 1007.5 1004.5
18 20.04 С 5 50 км 3/1 600 м
[Sc Ci fib]
-2.0 -7.9 64 -8 -8 прохладно 1008.0 1005.0
21 20.04 С 4 50 км ясно -1.2 -9.4 54 -6 -4 по сезону 1008.0 1004.9 -2.4 118
00 21.04 С 2 50 км ясно +1.3 -9.2 45 -1 +11 по сезону 1007.7 1004.7
03 21.04 С 1 50 км ясно +3.7 -9.3 38 +3 +17 опасность
простуды
1007.6 1004.6
06 21.04 З 3 50 км 3/1 1000 м
[Sc Ci fib]
+3.2 -7.9 44 0 +3 по сезону 1006.6 1003.6
09 21.04 З 4 50 км 5/3 1000 м
[Sc Ci fib]
+1.3 -7.2 53 -3 -3 по сезону 1006.8 1003.8 +5.7
12 21.04 С 2 50 км 1/1 1000 м
[Sc]
-0.2 -8.8 52 -3 -3 по сезону 1006.3 1003.3
15 21.04 СВ 2 20 км 8/3 600 м
[Sc Ci fib]
-0.1 -6.1 64 -3 -3 по сезону 1004.8 1001.8
18 21.04 СВ 3 20 км слабый ливневой снег 10/10 600 м
[Cb cap]
-0.4 -5.3 69 -5 -5 по сезону 1003.9 1000.9
21 21.04 СЗ 5 2000 м слабый ливневой снег 10/10 600 м
[Cb cap]
-1.9 -3.6 88 -8 -8 прохладно 1003.1 1000.1 -2.0 0.4 116
00 22.04 С 3 2000 м слабый ливневой снег 10/10 600 м
[Cb cap]
-1.4 -3.6 85 -6 -6 прохладно 1001.6 998.5 -2.1
03 22.04 штиль 0 20 км {ливн. осадки} 10/6 600 м
[Sc Ac und]
+2.2 -3.5 66 +2 +3 по сезону 999.9 996.9
06 22.04 ЮВ 3 20 км в посл. час ливневой снег 10/8 600 м
[Cb cap Ac und]
+3.2 -5.5 53 -0 0 по сезону 999.6 996.7
09 22.04 ЮВ 3 20 км слабый ливневой снег 10/10 600 м
[Cb cap]
+1.3 -2.7 75 -3 -3 по сезону 1000.9 997.9 +4.1 0.4
12 22.04 ЮВ 2 20 км {ливн. осадки} 6/3 1000 м
[Sc Ci fib]
-0.5 -2.8 84 -4 -4 по сезону 1001.4 998.4
15 22.04 С 4 20 км 4/1 1000 м
[Sc Ci fib]
-0.2 -7.3 59 -5 -5 по сезону 1001.9 998.9
18 22.04 С 6-10
{10}
50 км 8/1 1000 м
[Sc Ci fib]
-0.3 -7.8 57 -6 -6 по сезону 1002.1 999.1
21 22.04 С 4
{10}
50 км 9/1 600 м
[Sc Ac trans Ci fib]
-0.1 -8.4 54 -5 -4 по сезону 1003.2 1000.2 -0.9 0.0 114
00 23.04 СЗ 7 50 км 9/1 600 м
[Sc Ac trans Cs]
+2.5 -7.4 48 -3 -1 по сезону 1003.3 1000.3
03 23.04 З 5
{10}
50 км 10/1 600 м
[Sc Ac trans Cs]
+3.9 -5.6 50 -0 +2 по сезону 1003.9 1000.9
06 23.04 З 6-10
{10}
50 км 10/1 600 м
[Sc Ac trans Ci fib]
+3.6 -5.2 53 -1 -1 по сезону 1004.2 1001.2
09 23.04 З 4
{10}
20 км 10/5 600 м
[Sc Ac trans Ci fib]
+2.4 -4.8 59 -2 -2 по сезону 1005.6 1002.6 +4.3
12 23.04 С 3 20 км 10/6 600 м
[Sc Ac trans Ci fib]
+1.5 -6.0 57 -2 -2 по сезону 1006.3 1003.3
15 23.04 С 3 20 км {ливн. осадки} 8/8 600 м
[Sc]
+0.6 -6.1 61 -3 -3 по сезону 1006.5 1003.5
18 23.04 С 4 50 км {ливн. осадки} 10/0
[Ac trans Ci fib]
-0.5 -6.1 66 -6 -6 по сезону 1006.5 1003.5
21 23.04 СЗ 6 50 км 10/1 1000 м
[Sc Ac trans Ci fib]
+0.9 -5.8 61 -5 -4 по сезону 1006.4 1003.4 -0.5 0.0 112
00 24.04 З 10-12
{13}
50 км 3/1 1000 м
[Sc Ac As]
+2.6 -5.8 54 -4 -4 прохладно 1005.2 1002.2
03 24.04 З 6-10
{12}
50 км 3/1 1000 м
[Sc Ci fib]
+4.1 -5.0 51 -1 +3 по сезону 1003.8 1000.8
06 24.04 З 9-11
{12}
50 км 3/1 1000 м
[Sc Ci fib]
+3.3 -4.7 56 -3 -3 прохладно 1003.3 1000.3
09 24.04 З 8-10
{13}
50 км 3/1 600 м
[Sc Ac trans Ci fib]
+1.6 -6.5 55 -5 -5 прохладно 1004.9 1001.9 +4.5
12 24.04 С 4
{10}
50 км ясно +0.2 -7.3 57 -5 -5 по сезону 1006.4 1003.4
15 24.04 С 6
{10}
50 км ясно -0.5 -8.0 57 -7 -7 прохладно 1007.3 1004.3
18 24.04 С 7
{10}
50 км 1/0
[Ac trans]
-0.7 -9.2 53 -7 -7 прохладно 1008.3 1005.3
21 24.04 С 6
{12}
50 км 1/0
[Ac trans]
+0.9 -9.6 45 -5 -3 по сезону 1010.2 1007.1 -1.0 110
00 25.04 С 5
{10}
50 км ясно +3.6 -6.3 48 -1 +6 по сезону 1011.0 1008.0
03 25.04 СЗ 7
{10}
50 км ясно +4.9 -5.1 48 0 +3 по сезону 1011.5 1008.5
06 25.04 З 9-11
{13}
50 км ясно +4.8 -4.0 53 -1 -0 по сезону 1012.1 1009.1
09 25.04 С 4
{14}
50 км 3/0
[Ci fib]
+3.5 -4.4 56 -1 -1 по сезону 1013.3 1010.3 +5.0
12 25.04 С 6
{12}
50 км ясно +2.6 -5.8 54 -3 -3 по сезону 1014.1 1011.1
15 25.04 С 6 50 км 1/0
[Ci fib]
+2.0 -7.8 48 -3 -3 по сезону 1014.0 1011.0
18 25.04 СЗ 7 50 км 8/1 1000 м
[Sc Ac trans Ci fib]
+2.0 -7.1 51 -4 -4 по сезону 1013.8 1010.8
21 25.04 С 5
{10}
50 км ясно +4.3 -12.2 29 +1 +3 по сезону 1013.7 1010.7 +1.1 102
00 26.04 С 6 50 км ясно +5.6 -7.7 38 +2 +6 по сезону 1013.0 1010.1
03 26.04 штиль 0 50 км 10/0
[Ci fib]
+9.2 -9.3 26 +9 +22 опасность
простуды
1012.5 1009.6
06 26.04 ЮВ 3 50 км 3/1 600 м
[Sc Ac trans Ci fib]
+7.3 -10.2 28 +5 +8 тепло 1010.7 1007.7
09 26.04 ЮВ 4 50 км 10/3 600 м
[Sc Ac trans Ci fib]
+2.8 -2.8 67 -2 -2 по сезону 1009.3 1006.3 +10.4
12 26.04 ЮВ 7-11
{13}
20 км 10/6 600 м
[Sc Ac trans Ci fib]
+0.9 -2.6 77 -6 -6 прохладно 1008.1 1005.1
15 26.04 В 4
{11}
10 км слабый снег 10/0 600 м
[As op]
+0.8 -2.7 77 -4 -4 по сезону 1002.8 999.8

 

Местоположение метеостанции Петропавловск-Камчатский (Камчатский край, Россия): широта 52.87 долгота 158.60 высота над уровнем моря 24 м.

В архиве по умолчанию представлена погода в Петропавловск-Камчатском за последнюю неделю. Архивные данные за месяц целиком и за предыдущие месяцы, начиная с января 2011 года, Вы можете получить, выбрав интересующий диапазон дат из раскрывающегося списка и нажав кнопку "Ввод!".


*Определитесь, кто Вы:
робот инопланетянин человек

Внимание! Время в таблицах - всемирное. Для получения местного времени необходимо прибавить поправку, которая в Петропавловск-Камчатском равна 12 ч.

Смотрите также архив погоды в соседних городах и на ближайших метеорологических станциях:

Погода в Петропавловском Маяке (Камчатский край, Россия) (7 км)
Погода в Петропавловск-Камч. 2 (Камчатский край, Россия) (24 км)
Погода в Сосновке (Камчатский край, Россия) (31 км)
Погода в Начиках (Камчатский край, Россия) (66 км)
Погода в Водопадной (Камчатский край, Россия) (124 км)
Погода в Пущино (Камчатский край, Россия) (151 км)
Погода в Большерецке (Камчатский край, Россия) (155 км)
Погода в Семячике (Камчатский край, Россия) (163 км)
Погода в Мильково (Камчатский край, Россия) (201 км)
Погода в Озерной (Камчатский край, Россия) (215 км)

Пояснения к столбцам:

Ветер - указаны скорость ветра в м/с - средняя за 10 мин, порывы в срок и между сроками (в фигурных скобках) и направление, откуда дует ветер: С - северный, СВ - северо-восточный, В - восточный, ЮВ - юго-восточный, Ю - южный, ЮЗ - юго-западный, З - западный, СЗ - северо-западный.
Видимость - горизонтальная дальность видимости в метрах или километрах. При видимости от 1 до 10 км при отсутствии осадков обычно наблюдается дымка, при ухудшении видимости до 1 км и менее - туман. В сухую погоду видимость может ухудшаться дымом, пылью или мглою.
Явления - указаны атмосферные явления, наблюдавшиеся в срок или в последний час перед сроком; фигурными скобками обозначены явления, наблюдавшиеся между сроками (за 1-3 часа до срока); квадратными скобками обозначены град или гололедные отложения с указанием их диаметра в мм.
Облачность - указаны через наклонную черту общая и нижняя облачность в баллах и высота нижней границы облаков в метрах; квадратными скобками обозначены формы облаков: Ci - перистые, Cs - перисто-слоистые, Cc - перисто-кучевые, Ac - высококучевые, As - высокослоистые, Sc - слоисто-кучевые, Ns - слоисто-дождевые, Cu - кучевые, Cb - кучево-дождевые. Подробнее классификацию облаков см. в Атласе облаков (PDF).
T - Температура воздуха - температура, измеренная на высоте 2 м над землей.
Td - Температура точки росы - температура, при понижении до которой содержащийся в воздухе водяной пар достигнет насыщения.
f - Относительная влажность воздуха - влажноcть воздуха, измеренная на высоте 2 м над землей.
Te - Эффективная температура - температура, которую ощущает одетый по сезону человек в тени. Характеристика душности погоды. При расчете учитывается влияние влажности воздуха и скорости ветра на теплоощущения человека.
Tes - Эффективная температура на солнце - температура, которую ощущает человек, с поправкой на солнечный нагрев. Характеристика знойности погоды. Зависит от высоты солнца над горизонтом, облачности и скорости ветра. Ночью, в пасмурную погоду, а также при ветре 12 м/с и более поправка равна нулю.
P - Атмосферное давление - приведенное к уровню моря атмосферное давление.
Po - Атмосферное давление - измеренное на уровне метеостанции атмосферное давление.
Tmin - Минимальная температура - минимум температуры воздуха на высоте 2 м над землей.
Tmax - Максимальная температура - максимум температуры воздуха на высоте 2 м над землей.
R - Количество осадков - Количество выпавших осадков за период времени, мм. При наведении курсора мыши на число - период времени, за который выпало указанное количество осадков.
R24 - Количество осадков - Количество выпавших осадков за 24 часа, мм.
S - Снежный покров - Высота снежного покрова, см. При наведении курсора мыши на число - состояние снежного покрова и степень покрытия местности в баллах.